AirNav   ATP
 
 1041 users online  

6WI0 Cub Acres Airport
Prairie Farm, Wisconsin, USA

GOING TO PRAIRIE FARM?


FAA INFORMATION EFFECTIVE 24 MAY 2018

Location

FAA Identifier: 6WI0
Lat/Long: 45-10-49.8630N / 091-59-15.6440W
45-10.831050N / 091-59.260733W
45.1805175 / -91.9876789
(estimated)
Elevation: 1000 ft. / 305 m (estimated)
Variation: 02E (1985)
From city: 3 miles S of PRAIRIE FARM, WI
Time zone: UTC -5 (UTC -6 during Standard Time)
Zip code: 54763

Airport Operations

Airport use: Private use. Permission required prior to landing
Activation date: 01/1977
Control tower: no
ARTCC: MINNEAPOLIS CENTER
FSS: GREEN BAY FLIGHT SERVICE STATION
Attendance: UNATNDD
Wind indicator: yes
Segmented circle: no

Airport Communications

WX AWOS-3P at Y23 (17 nm NE): 119.05 (715-924-1836)
WX AWOS-3 at RPD (17 nm NE): 120.525 (715-458-4481)
WX AWOS-3 at LUM (18 nm S): 118.025 (715-235-5342)
WX AWOS-3PT at UBE (20 nm N): 119.175 (715-822-3452)

Nearby radio navigation aids

VOR radial/distance  VOR name  Freq  Var
EAUr304/27.5EAU CLAIRE VORTAC112.9004E

 
NDB name  Hdg/Dist  Freq  Var  ID
WICKR222/11.422101ERP .-. .--.

Airport Services

Runway Information

Runway 18/36

Dimensions: 2000 x 110 ft. / 610 x 34 m
Surface: turf
RUNWAY 18  RUNWAY 36
Traffic pattern: rightleft
Obstructions: nonetrees, 700 ft. from runway

Airport Ownership and Management from official FAA records

Ownership: Privately-owned
Owner: JAMES B. HOOVER
2 RIVER RD
RIDGELAND, WI 54763
Manager: JAMES B. HOOVER
2 RIVER RD
RIDGELAND, WI 54763
Phone 715-455-1744

Airport Operational Statistics

Aircraft based on the field: 1
Single engine airplanes: 1
    

Instrument Procedures

There are no published instrument procedures at 6WI0.

Some nearby airports with instrument procedures:

3T3 - Boyceville Municipal Airport (8 nm S)
Y23 - Chetek Municipal-Southworth Airport (17 nm NE)
KRPD - Rice Lake Regional Airport - Carl's Field (17 nm NE)
KAHH - Amery Municipal Airport (17 nm W)
KLUM - Menomonie Municipal Airport-Score Field (18 nm S)
KUBE - Cumberland Municipal Airport (20 nm N)
 
Loc | Ops | Rwys | IFR | FBO | Links
Com | Nav | Svcs | Stats | Notes

AirNav Hotels Sweepstakes
 
Area around 6WI0 (Cub Acres Airport)
 
Road maps at: MapQuest Bing Google
 
Aerial photo
WARNING: Photo may not be current or correct
Aerial photo of 6WI0 (Cub Acres Airport)
Photo by Dr. Dan Johnson
Photo taken 03-Oct-2010
looking northwest.

Do you have a better or more recent aerial photo of Cub Acres Airport that you would like to share? If so, please send us your photo.

 
Sectional chart

 
Airport distance calculator
Flying to Cub Acres Airport? Find the distance to fly.

From to 6WI0

Sunrise and sunset
Times for 24-May-2018
 Local
(UTC-5)
 Zulu
(UTC)
Morning civil twilight04:5509:55
Sunrise05:3010:30
Sunset20:3901:39
Evening civil twilight21:1502:15

Current date and time
Zulu (UTC)  24-May-2018 22:39:18
Local (UTC-5)  24-May-2018 17:39:18
 
METAR
KY23 
17nm NE 
242215Z AUTO 23013G20KT 10SM BKN055 BKN080 BKN090 32/17 A2992 RMK AO2 T03160170
KLUM 
18nm S 
242215Z AUTO 19013G20KT 10SM SCT060 SCT075 31/15 A2992 RMK AO2 LTG DSNT N T03110146
KUBE 
20nm N 
242215Z AUTO 19018KT 10SM SCT060 SCT080 30/12 A2992 RMK AO2 LTG DSNT N
KRPD 
21nm NE 
242215Z AUTO 19012G20KT 10SM SCT080 31/14 A2993 RMK AO2 LTG DSNT N T03090136
KRNH 
23nm W 
242215Z AUTO 20012G22KT 10SM SCT070 30/12 A2990 RMK AO2 T03020124
KEAU 
29nm SE 
242156Z 19014G21KT 10SM SCT060 BKN075 31/18 A2993 RMK AO2 SLP129 T03060178
KOEO 
30nm W 
242215Z AUTO 19012G22KT 10SM SCT075 31/14 A2991 RMK AO2 T03120135
TAF
KRNH 
23nm W 
241724Z 2418/2518 20012G20KT P6SM SCT060 SCT150 FM250000 19011KT P6SM VCSH SCT060 BKN120 TEMPO 2500/2504 5SM -TSRA BKN050CB FM250500 18009KT P6SM VCTS SCT050CB BKN100 FM250800 19007KT P6SM SCT060 BKN100 FM251400 22009KT P6SM SCT110 BKN250
NOTAMs
Click for the latest NOTAMs
NOTAMs are issued by the DoD/FAA and will open in a separate window not controlled by AirNav.

 

 
 

Would you like to see your business listed on this page?

 If your business provides an interesting product or service to pilots, flight crews, aircraft, or users of the Cub Acres Airport, you should consider listing it here.  To start the listing process, click on the button below
 
Add a business
 

Other Pages about Cub Acres Airport

Update a link
 
Copyright © AirNav, LLC. All rights reserved. Privacy Policy  Contact